Home   Weather   Loures   Past weeks
Flag for Portugal

Past Weather in Loures, Lisbon, Portugal — Yesterday and Last 2 Weeks

Now
57 °F

Passing clouds.


Feels Like: 54 °F
Forecast: 65 / 46 °F
Wind: 15 mph from Northeast

Location: Lisbon Portela Airport

Current Time: Mar 28, 2020 at 11:23:37 am

Latest Report: Mar 28, 2020 at 11:00 am


Visibility: N/A

Pressure: 30.01 "Hg

Humidity: 55%

Dew Point: 41 °F

Location of LouresLocation

Past Weather in Loures — Graph

°F

Loures Temperature Yesterday

Maximum temperature yesterday: 64 °F (at 2:30 pm)
Minimum temperature yesterday: 48 °F (at 6:30 am)
Average temperature yesterday: 55 °F

High & Low Weather Summary for the Past Weeks

 TemperatureHumidityPressure
High73 °F (Mar 14, 4:00 pm)100% (Mar 14, 7:00 am)30.18 "Hg (Mar 14, 7:00 am)
Low43 °F (Mar 21, 5:00 am)40% (Mar 22, 3:00 pm)29.80 "Hg (Mar 21, 2:00 pm)
Average57 °F72%29.98 "Hg
* Reported Mar 13 10:00 am — Mar 28 10:30 am, Loures. Weather by CustomWeather, © 2020

Note: Actual official high and low records may vary slightly from our data, if they occured in-between our weather recording intervals... More about our weather records

Loures Weather History for the Previous 24 Hours

Scroll right to see more
 ConditionsComfort  
Time TempWeatherWind HumidityBarometerVisibility
10:30 am
Sat, Mar 28
55 °FPassing clouds.16 mph59%30.01 "HgN/A
10:00 am55 °FSunny.16 mph59%30.01 "Hg10 mi
9:30 am54 °FSunny.14 mph63%30.01 "Hg10 mi
9:00 am54 °FPassing clouds.13 mph63%30.01 "HgN/A
8:30 am52 °FPassing clouds.10 mph67%30.01 "HgN/A
8:00 am50 °FPassing clouds.10 mph71%30.01 "HgN/A
7:30 am48 °FSunny.9 mph71%30.01 "Hg10 mi
7:00 am46 °FSunny.9 mph76%29.98 "Hg10 mi
6:30 am46 °FSunny.8 mph76%29.98 "Hg10 mi
6:00 am46 °FClear.7 mph76%29.98 "Hg10 mi
5:30 am46 °FClear.8 mph76%29.98 "Hg10 mi
5:00 am46 °FClear.7 mph82%29.98 "Hg10 mi
4:30 am48 °FClear.7 mph76%29.95 "Hg10 mi
4:00 am48 °FClear.7 mph76%29.95 "Hg10 mi
3:30 am48 °FClear.8 mph76%29.95 "Hg10 mi
2:30 am50 °FClear.9 mph76%29.95 "Hg10 mi
2:00 am52 °FClear.9 mph72%29.95 "Hg10 mi
1:30 am52 °FClear.8 mph72%29.95 "Hg10 mi
1:00 am50 °FClear.7 mph76%29.95 "Hg10 mi
12:30 am52 °FPassing clouds.7 mph77%29.95 "HgN/A
12:00 am52 °FPassing clouds.6 mph77%29.95 "HgN/A
11:30 pm
Fri, Mar 27
52 °FClear.7 mph77%29.92 "Hg10 mi
11:00 pm52 °FClear.8 mph77%29.92 "Hg10 mi
10:30 pm54 °FClear.9 mph72%29.92 "Hg10 mi
10:00 pm52 °FClear.9 mph77%29.92 "Hg10 mi
9:30 pm54 °FClear.9 mph67%29.92 "Hg10 mi
9:00 pm54 °FClear.10 mph67%29.89 "Hg10 mi
8:30 pm54 °FClear.12 mph67%29.89 "Hg10 mi
8:00 pm54 °FPassing clouds.14 mph72%29.89 "HgN/A
7:30 pm54 °FPassing clouds.14 mph77%29.86 "HgN/A
7:00 pm55 °FPassing clouds.13 mph72%29.83 "HgN/A
6:30 pm57 °FPassing clouds.10 mph67%29.83 "HgN/A
6:00 pm57 °FPassing clouds.9 mph63%29.83 "HgN/A
5:30 pm59 °FPassing clouds.9 mph59%29.83 "HgN/A
5:00 pm61 °FPassing clouds.8 mph55%29.83 "HgN/A
4:30 pm61 °FPassing clouds.7 mph55%29.83 "HgN/A
4:00 pm63 °FPassing clouds.9 mph52%29.80 "HgN/A
3:30 pm63 °FPassing clouds.8 mph52%29.80 "HgN/A
3:00 pm63 °FPassing clouds.7 mph49%29.83 "HgN/A
2:30 pm64 °FPassing clouds.7 mph49%29.83 "HgN/A
2:00 pm63 °FPassing clouds.8 mph49%29.83 "HgN/A
1:30 pm61 °FPassing clouds.8 mph55%29.83 "HgN/A
1:00 pm61 °FPassing clouds.6 mph52%29.83 "HgN/A
12:30 pm61 °FPassing clouds.6 mph52%29.83 "HgN/A
12:00 pm61 °FPassing clouds.8 mph48%29.83 "HgN/A
11:30 am59 °FPassing clouds.8 mph55%29.86 "HgN/A
11:00 am57 °FPassing clouds.8 mph59%29.86 "HgN/A
Weather by CustomWeather, © 2020

See weather overview

Advertising